COTTON VALLEY VI US current weather conditions

sailwx.info

Wind from 060 at 3 knots gusting 12

Air temperature 25.6° C
Dewpoint 23.2° C

Last reported at 2019-Jun-20 09:13 UTC.
Time now 2019-Jun-20 11:05 UTC

Location: N 17°45' W 064°37'.
View on Google Maps.

See reports from other nearby stations

  
Tides and Currents Weather Stations Pressure Air Temp Water Temp Dewpoint Dewpoint Depression Visibility Wind Speed Wind Dir Waves Ship Positions
date/time (UTC)wind fromknots sea level pressurealtimeterstation pressurevisibilityair tempwater tempwave heightnotes
2019-Jun-20 09:13 060 3 gusting 12 25.6
2019-Jun-20 08:13 041 3 gusting 12 25.6
2019-Jun-20 07:13 023 5 gusting 13 25.6
2019-Jun-20 06:13 031 4 gusting 11 25.6
2019-Jun-20 05:13 039 4 gusting 16 25.6
2019-Jun-20 04:13 028 4 gusting 11 26.1
2019-Jun-20 03:13 016 3 gusting 12 26.1
2019-Jun-20 02:13 022 3 gusting 11 26.1
2019-Jun-20 01:13 034 4 gusting 14 26.1
2019-Jun-20 00:13 032 4 gusting 13 26.1
2019-Jun-19 23:13 042 3 gusting 12 26.1
2019-Jun-19 22:13 035 5 gusting 14 27.2
2019-Jun-19 21:13 034 4 gusting 14 28.3
2019-Jun-19 20:13 041 5 gusting 14 31.1
2019-Jun-19 19:13 042 3 gusting 13 33.3
2019-Jun-19 18:13 040 3 gusting 11 34.4
2019-Jun-19 17:13 072 5 gusting 11 34.4
2019-Jun-19 16:13 058 4 gusting 13 34.4
2019-Jun-19 15:13 042 5 gusting 13 33.9
2019-Jun-19 14:13 043 5 gusting 13 32.8
2019-Jun-19 13:13 034 3 gusting 17 31.1
2019-Jun-19 12:13 040 4 gusting 13 28.9
2019-Jun-19 11:13 027 6 gusting 13 27.8
2019-Jun-19 10:13 031 5 gusting 15 25.6
2019-Jun-19 09:13 028 5 gusting 14 25.6
2019-Jun-19 08:13 026 6 gusting 14 25.6
2019-Jun-19 07:13 029 5 gusting 12 25.6
2019-Jun-19 06:13 032 4 gusting 14 26.1
2019-Jun-19 05:13 027 5 gusting 13 26.1
2019-Jun-19 04:13 027 5 gusting 13 26.1
2019-Jun-19 03:13 035 5 gusting 12 26.1
2019-Jun-19 02:13 028 5 gusting 15 26.1
2019-Jun-19 01:13 029 5 gusting 13 26.1
2019-Jun-19 00:13 024 5 gusting 14 26.1
2019-Jun-18 23:13 024 5 gusting 14 26.1
2019-Jun-18 22:13 023 5 gusting 15 27.2
2019-Jun-18 21:13 032 3 gusting 11 28.9
2019-Jun-18 20:13 030 3 gusting 13 29.4
2019-Jun-18 19:13 045 3 gusting 12 33.9
2019-Jun-18 18:13 048 5 gusting 13 33.9
2019-Jun-18 17:13 035 4 gusting 12 34.4
2019-Jun-18 16:13 066 4 gusting 14 33.3
2019-Jun-18 15:13 108 5 gusting 14 31.1
2019-Jun-18 14:13 031 4 gusting 10 32.8
2019-Jun-18 13:13 034 4 gusting 10 29.4
2019-Jun-18 12:13 047 3 gusting 11 28.9
2019-Jun-18 11:13 039 4 gusting 13 27.2